Preview of NWS' New Version of Forecast
This preview is not operational and should not be used for support decisions.

Regional Weather Roundup (RWR)

Issued by Gray - Portland, ME (GYX)

                            
000
ASUS41 KGYX 180205
RWRGYX
WEATHER ROUNDUP FOR MAINE AND NEW HAMPSHIRE
NATIONAL WEATHER SERVICE GRAY ME
900 PM EST THU JAN 17 2019

MEZ002-005-006-010-012-015-018-020-021-024-026-027-029-180300-
MAINE
  
CITY           SKY/WX    TMP DP  RH WIND       PRES   REMARKS
PORTLAND       MOCLDY    19   6  57 NW3       30.35S                  
SANFORD        MOCLDY    16   8  71 CALM      30.34R                  
BAR HARBOR     FAIR       7   2  80 NW5       30.39S                  
WISCASSET      FAIR      13   6  74 CALM      30.38S                  
ROCKLAND       FAIR      11   5  77 CALM      30.37F                  
FRYEBURG       FAIR      10  -1  61 CALM      30.32S                  
LEWISTONAUBURN MOCLDY    13   1  59 N5        30.34F                  
AUGUSTA        FAIR      11  -6  46 E3        30.34F                  
WATERVILLE     FAIR       6  -5  60 MISG      30.32S                  
BANGOR         FAIR       8  -5  55 SE3       30.37F                  
GREENVILLE       N/A      0 -12  57 CALM      30.19F                  
MILLINOCKET    FAIR      -5  -9  83 CALM      30.35S                  
HOULTON        FAIR     -16 -20  82 CALM      30.31S                  
PRESQUE ISLE   FAIR     -16 -21  78 CALM      30.31S                  
FRENCHVILLE    FAIR      -6 -16  61 CALM      30.21R                  
CARIBOU        FAIR      -9 -17  68 SE6       30.28R                  
$$

NHZ002-005-008-009-011-012-014-180300-
NEW HAMPSHIRE
  
CITY           SKY/WX    TMP DP  RH WIND       PRES   REMARKS
PORTSMOUTH     CLOUDY    20   1  43 CALM      30.33S                  
ROCHESTER      FAIR      18   5  57 CALM      30.32S                  
NASHUA         FAIR      22   2  42 CALM      30.33F                  
MANCHESTER     CLOUDY    22  -1  36 CALM      30.31F                  
CONCORD        FAIR      16   6  65 E3        30.31F                  
LACONIA        FAIR      13   4  67 CALM      30.31R                  
PLYMOUTH       CLOUDY    10   1  67 CALM      30.31S                  
BERLIN         FAIR       1  -5  75 CALM      30.25S                  
WHITEFIELD     MOCLDY     3  -2  79 CALM      30.25F                  
JAFFREY        FAIR      19   7  59 CALM      30.24F                  
KEENE          FAIR      19   7  59 CALM      30.28F                  
LEBANON        FAIR      13   2  61 CALM      30.28S                  
MT WASHINGTON  MOCLDY     1 -17  42 W29         N/A  WCI -24          
$$

VTZ005-007-008-180300-
VERMONT
  
CITY           SKY/WX    TMP DP  RH WIND       PRES   REMARKS
ST JOHNSBURY     N/A      7  -2  66 MISG      30.27F                  
MONTPELIER     MOCLDY     8   2  76 CALM      30.26F                  
BURLINGTON     CLOUDY    13   2  61 SE3       30.25F                  
$$

MAZ007-012-024-CTZ003-RIZ002-NYZ038-NYZ072-180300-
SOUTHERN NEW ENGLAND AND NY
  
CITY           SKY/WX    TMP DP  RH WIND       PRES   REMARKS
BOSTON         CLOUDY    27  10  49 S10       30.34F WCI  17          
WORCESTER      CLOUDY    22   2  42 S6        30.25F                  
NANTUCKET      FAIR      26  16  65 NE3       30.34F                  
PROVIDENCE     CLOUDY    27   7  42 SE5       30.33F                  
HARTFORD       CLOUDY    24   0  35 S5        30.30F                  
ALBANY         CLOUDY    21  -2  36 CALM      30.27F                  
NEW YORK CITY  CLOUDY    32  12  43 SE6       30.28F                  
$$

ANZ081-ANZ082-ANZ150-NHZ014-MEZ023>029-180300-
COASTAL MARINE OBSERVATIONS
  
STATION/POSITION TIME  TEMP    WIND        PRES    WAVE
                       AIR SEA DIR/SP/G            HT/PER
                 (UTC) (F)     (DEG/KT/KT) (MB)    (FT/S)
MOUNT DESERT ROC 0200   19     330/  3/  4 1028.8F
MATINICUS ROCK   0100   20      CALM  /  1 1028.1F
ISLE OF SHOALS   0100   25        CALM     1027.3F
JEFFREYS LEDGE   0138      43                N/A     1/10
$$

.............KEY..............
   WCI - WIND CHILL
   TC  - TEMPERATURE IN CELSIUS
   VSB - VISIBILITY IN MILES
   HX  - HEAT INDEX
   FAIR- INDICATES FEW OR NO CLOUDS BELOW 12,000 FT, WITH NO 
         SIGNIFICANT WEATHER AND/OR OBSTRUCTIONS TO VISIBILITY.